GEO-KOMPSAT-2B

Last updated on Tue Sep 22 2026 00:03:15 GMT+0000 (Coordinated Universal Time)

1 45246U 20013B 26264.51446412 -.00000348 00000+0 00000+0 0 9998 2 45246 0.0398 335.4563 0001490 253.2988 85.1218 1.00271125 24249
UTC large
Height (km)
Speed (km/s)
/
Latitude / Longitude
Inclination (degrees)
Orbital Period (minutes)
Azimuth
Elevation
Range (km)
Doppler Factor

Next 0 passes for location: London (51.5072 / 0.1276)

No passes found over London.
GEO-KOMPSAT-2B